TimeCDT,TemperatureF,Dew PointF,Humidity,Sea Level PressureIn,VisibilityMPH,Wind Direction,Wind SpeedMPH,Gust SpeedMPH,PrecipitationIn,Events,Conditions,WindDirDegrees,DateUTC
12:54 AM,55.0,51.1,86,29.65,10.0,West,12.7,-,N/A,,Clear,270,2013-11-01 05:54:00
1:54 AM,53.1,50.0,89,29.68,10.0,West,6.9,-,N/A,,Scattered Clouds,260,2013-11-01 06:54:00
2:06 AM,53.6,51.8,94,29.69,10.0,West,9.2,-,N/A,,Mostly Cloudy,270,2013-11-01 07:06:00
2:40 AM,53.6,50.0,88,29.70,10.0,West,11.5,-,N/A,,Overcast,270,2013-11-01 07:40:00
2:54 AM,53.1,48.0,83,29.70,10.0,West,11.5,20.7,N/A,,Mostly Cloudy,270,2013-11-01 07:54:00
3:01 AM,51.8,48.2,88,29.70,10.0,West,10.4,-,N/A,,Scattered Clouds,270,2013-11-01 08:01:00
3:54 AM,51.1,48.0,89,29.70,10.0,SW,10.4,-,N/A,,Clear,230,2013-11-01 08:54:00
4:54 AM,50.0,46.9,89,29.71,10.0,WSW,8.1,-,N/A,,Clear,240,2013-11-01 09:54:00
5:54 AM,48.0,46.0,93,29.71,10.0,SW,8.1,-,N/A,,Clear,220,2013-11-01 10:54:00
6:54 AM,48.9,46.9,93,29.73,10.0,SSW,8.1,-,N/A,,Clear,210,2013-11-01 11:54:00
7:54 AM,51.1,48.0,89,29.74,10.0,SSW,11.5,-,N/A,,Clear,210,2013-11-01 12:54:00
8:54 AM,53.1,48.9,86,29.76,10.0,SW,16.1,-,N/A,,Clear,220,2013-11-01 13:54:00
9:54 AM,55.9,50.0,80,29.75,10.0,SSW,11.5,-,N/A,,Clear,200,2013-11-01 14:54:00
10:54 AM,60.1,50.0,69,29.74,10.0,SSW,6.9,-,N/A,,Clear,200,2013-11-01 15:54:00
11:54 AM,62.1,50.0,65,29.73,10.0,South,12.7,-,N/A,,Clear,190,2013-11-01 16:54:00
12:54 PM,66.0,48.0,52,29.71,10.0,West,15.0,-,N/A,,Clear,270,2013-11-01 17:54:00
1:54 PM,64.9,46.0,50,29.70,10.0,WSW,18.4,24.2,N/A,,Partly Cloudy,250,2013-11-01 18:54:00
2:54 PM,66.0,45.0,47,29.70,10.0,WSW,19.6,23.0,N/A,,Scattered Clouds,250,2013-11-01 19:54:00
3:54 PM,64.0,43.0,46,29.72,10.0,West,18.4,21.9,N/A,,Partly Cloudy,260,2013-11-01 20:54:00
4:54 PM,63.0,42.1,46,29.73,10.0,WNW,10.4,-,N/A,,Clear,290,2013-11-01 21:54:00
5:54 PM,59.0,42.1,53,29.75,10.0,West,9.2,-,N/A,,Clear,280,2013-11-01 22:54:00
6:54 PM,55.9,44.1,64,29.78,10.0,West,5.8,-,N/A,,Mostly Cloudy,260,2013-11-01 23:54:00
7:54 PM,55.0,46.0,72,29.79,10.0,Calm,Calm,-,N/A,,Overcast,0,2013-11-02 00:54:00
8:54 PM,55.9,42.1,60,29.81,10.0,NW,8.1,-,N/A,,Scattered Clouds,310,2013-11-02 01:54:00
9:54 PM,53.1,42.1,66,29.85,10.0,Calm,Calm,-,N/A,,Clear,0,2013-11-02 02:54:00
10:54 PM,51.1,41.0,68,29.86,10.0,Calm,Calm,-,N/A,,Clear,0,2013-11-02 03:54:00
11:54 PM,48.0,41.0,77,29.84,10.0,Calm,Calm,-,N/A,,Clear,0,2013-11-02 04:54:00